Wind_Speed
58 62 63 62 58 55 56 59 63 65 66 68 66 64 60 55 53 52 54 57 59 60 60 59 60 61 61 62 61 62 62 62 62 63 63 66 65 65 63 62 63 65 66
61 62 68 67 57 63 66 65 67 68 67 67 67 64 60 59 59 58 58 58 60 62 63 60 63 65 66 66 66 66 68 69 69 67 67 67 71 73 72 70 69 74 72
65 70 67 66 66 68 70 72 71 70 67 67 70 71 66 64 62 62 62 62 62 65 65 63 67 65 63 64 68 69 70 70 69 70 69 71 65 70 72 74 69 67 67
62 64 61 63 73 74 78 76 74 76 72 71 71 73 72 69 69 68 68 64 62 58 61 65 66 64 65 68 69 72 73 73 71 68 68 65 66 68 67 62 60 61 60
76 79 78 71 70 71 68 71 65 65 74 78 77 73 73 73 69 69 68 65 65 63 63 67 67 67 66 67 67 69 69 68 63 63 61 62 63 64 59 58 60 59 63
94 94 90 82 76 76 77 79 80 77 73 76 82 76 66 67 67 69 72 70 68 70 67 64 63 65 62 64 66 68 68 62 59 58 61 60 61 60 63 63 65 60 70
87 87 84 80 79 80 80 81 83 84 81 76 75 73 74 72 70 73 73 75 72 71 68 68 66 62 65 65 67 68 66 59 59 62 63 64 66 66 71 75 77 73 73
85 79 80 79 79 87 87 87 87 85 83 83 78 76 73 77 73 78 76 73 72 71 69 71 66 68 73 73 75 68 56 59 64 66 69 72 70 74 77 80 80 75 80
84 90 82 85 83 84 88 90 95 96 92 90 89 82 75 77 81 77 70 71 70 68 69 67 69 66 69 62 69 68 63 64 65 63 69 72 75 76 80 78 79 81 81
96 94 87 88 89 89 91 93 83 87 96 93 93 81 77 77 74 77 81 57 64 66 62 54 59 54 57 57 58 62 65 70 68 66 68 69 70 77 81 83 89 89 88
94 94 92 95 95 92 89 76 73 71 68 77 80 83 83 85 80 68 65 66 64 63 54 61 59 65 63 60 64 67 71 74 69 70 70 71 76 79 82 85 91 96 96
95 90 96 88 84 87 85 74 73 70 68 65 66 65 65 62 64 64 65 60 62 62 59 63 69 67 71 65 66 66 74 76 70 74 78 77 77 82 87 87 88 92 91
95 89 89 85 76 70 73 68 66 71 66 70 74 75 66 61 58 57 64 67 66 59 58 60 65 66 74 70 71 70 69 74 76 77 81 80 80 83 79 82 85 88 88
100 93 92 85 73 69 66 71 69 72 72 75 74 67 72 64 61 59 58 58 68 54 59 61 70 68 67 68 68 69 73 77 78 79 78 78 82 75 74 81 82 83 78
100 107 106 105 95 88 85 79 77 80 80 70 76 69 69 71 71 78 73 71 61 59 61 68 70 62 66 76 77 67 73 76 75 71 71 76 79 78 75 77 78 73 70
95 96 99 107 114 114 103 100 90 81 80 79 68 66 69 72 78 76 66 77 70 71 67 64 66 73 68 75 74 66 70 70 71 77 80 75 73 71 73 73 71 66 67
85 88 91 95 100 100 109 108 93 87 86 89 79 71 67 76 84 77 81 82 77 75 79 69 76 74 75 80 84 76 71 75 81 79 70 71 69 68 68 66 61 63 64
71 74 77 80 85 84 85 92 91 91 91 96 94 72 69 72 84 87 75 73 79 81 74 77 77 71 67 67 72 75 78 82 78 72 74 70 63 58 59 58 59 63 66
62 62 64 65 69 74 73 76 86 97 97 98 89 81 76 79 82 80 77 71 74 68 69 69 71 71 69 79 81 83 80 79 76 70 69 62 58 57 55 57 60 65 68
49 51 54 56 58 60 61 62 69 79 92 106 105 98 86 85 81 92 87 82 77 75 81 85 72 68 71 74 78 80 76 72 67 66 61 55 55 55 55 57 62 65 68
38 39 42 43 45 47 48 47 49 50 55 60 72 80 79 86 86 91 96 96 92 90 89 84 83 68 68 69 66 63 63 60 57 56 51 52 54 55 56 60 63 66 68
24 24 25 28 31 34 35 37 38 39 40 46 50 54 60 68 74 77 70 66 63 67 66 60 61 59 55 54 49 51 55 58 53 50 50 50 52 54 58 62 64 67 69
13 15 14 16 18 17 20 27 32 32 32 35 38 41 42 42 44 47 49 48 47 45 45 46 47 46 48 50 49 50 52 49 47 44 45 49 52 56 61 63 66 69 71
10 8 11 14 16 17 17 15 15 18 24 28 26 24 24 23 27 33 35 36 40 44 44 44 43 43 45 44 45 47 46 44 43 44 47 50 55 59 62 65 68 70 74
14 13 15 17 19 20 21 20 23 25 24 28 32 32 30 31 33 33 29 34 37 39 37 38 43 43 42 42 43 44 39 40 43 46 50 53 57 61 64 67 69 72 77
10 9 8 8 8 10 11 14 18 23 23 26 29 30 29 29 29 30 30 32 33 34 36 37 38 39 39 37 36 35 37 41 46 50 53 56 59 62 66 68 72 76 80
Wind_Direction
243 243 243 244 248 257 264 263 261 264 263 265 267 269 270 271 269 269 272 275 277 277 276 275 275 276 275 276 273 272 273 274 275 276 279 282 287 290 291 291 292 292 291
241 241 247 249 251 255 260 263 261 263 266 267 267 269 269 271 271 272 271 271 274 275 275 273 275 275 275 274 272 270 271 273 273 278 282 284 286 286 290 292 292 291 291
245 244 248 254 263 262 261 265 262 259 261 266 265 268 270 272 272 271 269 270 270 269 269 269 269 269 268 268 268 268 270 273 279 282 284 284 285 286 286 288 290 289 286
253 250 256 266 264 265 264 263 262 262 260 259 263 266 268 273 273 271 271 270 266 262 262 264 266 268 269 270 271 272 275 278 281 282 282 283 285 283 285 289 293 294 295
252 260 264 264 262 261 262 260 256 260 263 264 264 264 268 271 270 270 267 266 264 263 265 267 267 268 270 273 277 278 279 281 282 283 283 284 281 285 287 293 293 294 293
261 260 264 266 261 252 257 260 262 265 263 263 264 264 265 266 266 265 263 262 260 262 265 267 268 270 272 273 276 276 277 278 280 280 280 276 280 283 289 293 299 306 311
269 265 262 258 257 256 259 257 257 259 259 256 258 260 263 260 265 258 258 259 259 261 262 265 269 268 272 274 276 275 275 279 277 278 277 275 280 288 290 291 295 298 311
267 266 256 252 256 258 256 253 255 255 257 256 256 259 262 263 257 252 254 257 259 261 265 266 267 268 266 268 266 270 276 280 276 276 275 274 282 289 291 292 293 296 306
263 262 256 255 261 262 266 267 259 257 254 256 261 261 265 263 257 254 256 259 263 263 263 266 266 267 272 276 271 274 273 278 278 282 279 279 284 291 293 299 294 303 308
262 258 258 262 264 264 270 270 265 259 260 262 263 263 260 262 268 267 261 268 268 263 266 268 266 268 272 273 269 270 269 275 277 287 285 286 291 295 296 301 301 300 305
265 261 263 268 267 263 263 262 267 270 267 264 265 266 264 266 265 262 267 270 260 268 263 264 268 273 273 270 271 270 277 279 278 286 288 287 292 292 294 299 305 301 301
268 267 266 264 259 257 257 262 268 270 261 258 261 262 261 259 261 265 267 263 259 262 263 266 266 265 268 263 269 272 276 273 278 285 285 288 291 292 292 296 299 299 304
261 260 257 254 255 259 260 262 265 267 264 250 257 258 260 266 266 261 262 262 263 268 263 263 269 272 265 268 279 277 276 272 278 281 281 285 289 293 294 297 299 304 306
255 252 254 249 248 252 251 254 260 262 262 252 255 254 256 261 260 250 265 264 258 267 259 258 271 264 265 275 274 278 275 272 272 275 279 285 291 294 294 295 298 297 298
258 254 253 256 251 252 254 256 256 262 259 249 250 254 258 263 260 247 252 253 254 254 267 263 265 261 276 276 269 269 264 268 270 278 286 293 293 293 293 292 291 293 298
262 259 256 253 257 256 257 260 261 260 259 247 249 251 253 253 252 243 253 252 247 263 261 259 261 266 271 264 262 258 260 265 272 282 286 287 288 282 284 288 289 294 300
267 264 261 255 255 257 258 260 260 257 253 246 252 250 254 252 245 245 247 247 251 260 255 257 262 264 262 261 263 262 260 271 276 286 285 282 283 283 283 286 290 295 297
268 267 265 262 259 257 254 252 251 247 245 246 247 246 251 254 251 247 246 245 246 251 250 259 261 259 257 257 260 266 271 278 283 282 280 281 281 283 286 290 293 293 294
269 266 264 263 261 259 255 250 246 243 243 238 237 242 252 248 254 247 243 244 246 248 254 250 251 261 267 261 259 270 277 278 279 278 280 281 280 287 290 293 292 293 295
271 266 263 262 262 260 258 252 249 247 246 245 248 254 252 247 252 252 249 249 244 252 262 265 266 266 266 267 268 268 271 273 275 278 278 279 282 287 288 288 290 294 296
271 267 263 262 262 261 259 256 254 250 245 241 242 244 247 246 247 251 252 257 263 264 266 266 267 265 265 266 266 267 270 273 275 281 279 280 283 285 285 287 291 294 298
276 268 264 262 262 264 265 261 255 248 241 237 238 239 241 244 249 252 254 255 256 259 261 257 260 262 263 266 268 271 273 275 275 272 277 280 281 282 284 288 291 296 301
283 274 270 265 275 270 259 250 245 244 239 234 233 235 238 238 239 240 241 244 246 248 248 248 252 258 260 262 266 269 268 264 266 271 275 279 283 284 286 289 293 297 301
354 316 266 257 253 260 264 240 232 235 238 236 237 231 233 238 238 236 237 236 239 239 242 249 254 256 260 270 268 260 259 265 270 274 278 282 283 285 288 292 296 299 302
319 301 280 268 266 264 260 255 242 248 243 239 237 237 238 245 241 233 233 240 243 249 252 250 252 259 264 268 261 258 263 270 276 279 282 283 285 287 290 295 298 301 303
341 328 305 283 275 265 256 249 242 243 243 237 239 241 246 245 239 231 245 257 252 249 249 253 256 259 261 257 258 265 273 277 279 281 282 284 287 290 294 298 300 302 304
Height
5634 5634 5634 5634 5636 5637 5640 5640 5640 5639 5639 5639 5639 5640 5641 5642 5642 5643 5645 5644 5643 5643 5643 5642 5643 5643 5643 5643 5640 5640 5641 5641 5639 5637 5635 5630 5626 5625 5625 5624 5622 5619 5618
5618 5619 5620 5622 5621 5622 5621 5621 5621 5622 5620 5619 5620 5622 5623 5623 5623 5624 5624 5627 5627 5626 5626 5625 5625 5625 5625 5625 5625 5624 5624 5622 5620 5616 5615 5615 5612 5609 5607 5606 5602 5600 5599
5602 5603 5603 5605 5605 5606 5606 5606 5604 5601 5603 5603 5605 5606 5607 5608 5608 5606 5606 5607 5608 5608 5608 5606 5606 5607 5607 5608 5608 5606 5604 5603 5602 5601 5598 5595 5593 5591 5589 5589 5588 5588 5586
5581 5581 5583 5584 5586 5587 5586 5586 5586 5586 5585 5585 5587 5589 5590 5590 5589 5589 5590 5588 5588 5589 5590 5589 5589 5588 5589 5589 5588 5587 5586 5585 5584 5583 5580 5577 5577 5574 5574 5574 5574 5572 5568
5558 5560 5562 5565 5565 5567 5565 5565 5566 5567 5569 5568 5567 5567 5569 5570 5573 5572 5570 5570 5570 5571 5571 5572 5571 5571 5570 5570 5569 5569 5568 5568 5568 5567 5564 5561 5558 5557 5557 5557 5555 5554 5552
5533 5534 5537 5538 5542 5543 5544 5545 5547 5547 5548 5547 5549 5550 5549 5551 5553 5552 5551 5551 5552 5553 5553 5553 5552 5553 5552 5552 5551 5550 5550 5550 5551 5550 5547 5544 5541 5542 5540 5537 5535 5533 5535
5510 5509 5512 5514 5517 5519 5520 5520 5521 5523 5524 5526 5527 5528 5531 5530 5532 5531 5529 5531 5530 5531 5533 5533 5534 5534 5534 5535 5533 5532 5533 5533 5532 5533 5530 5527 5525 5522 5520 5519 5514 5512 5507
5483 5484 5488 5489 5493 5495 5495 5495 5498 5499 5501 5503 5505 5507 5508 5510 5509 5509 5509 5510 5511 5512 5514 5514 5514 5515 5515 5515 5514 5515 5515 5516 5516 5514 5513 5508 5506 5502 5500 5497 5494 5491 5483
5461 5461 5462 5464 5467 5469 5470 5472 5473 5474 5475 5478 5480 5483 5484 5489 5490 5488 5487 5490 5491 5495 5496 5495 5496 5496 5495 5496 5498 5497 5497 5496 5496 5495 5494 5491 5487 5482 5477 5476 5469 5463 5460
5431 5433 5433 5435 5437 5442 5444 5442 5444 5447 5450 5450 5453 5457 5461 5466 5468 5468 5469 5471 5472 5473 5476 5475 5477 5477 5478 5480 5479 5478 5478 5475 5476 5475 5472 5469 5467 5462 5454 5450 5446 5439 5430
5402 5403 5406 5406 5410 5413 5418 5419 5418 5420 5424 5428 5433 5435 5440 5445 5446 5443 5447 5453 5453 5453 5455 5457 5458 5457 5458 5459 5459 5460 5459 5458 5455 5453 5450 5447 5445 5440 5433 5424 5418 5412 5409
5369 5374 5377 5380 5382 5385 5388 5392 5394 5399 5401 5406 5407 5410 5414 5417 5419 5423 5425 5434 5432 5433 5436 5438 5439 5438 5440 5440 5440 5440 5439 5437 5435 5433 5429 5426 5423 5418 5412 5406 5396 5389 5385
5337 5344 5349 5350 5354 5356 5361 5366 5371 5375 5380 5383 5388 5390 5394 5395 5395 5399 5408 5416 5413 5414 5417 5418 5416 5419 5419 5419 5421 5420 5418 5417 5415 5411 5407 5404 5400 5396 5390 5385 5377 5369 5364
5304 5312 5317 5322 5326 5329 5335 5343 5347 5353 5356 5360 5365 5369 5373 5376 5378 5381 5388 5391 5394 5395 5395 5397 5399 5398 5399 5400 5399 5400 5397 5395 5393 5388 5385 5383 5379 5374 5368 5362 5355 5348 5348
5269 5277 5286 5288 5294 5300 5307 5315 5322 5329 5334 5335 5342 5346 5351 5357 5357 5357 5364 5368 5375 5375 5374 5378 5378 5380 5380 5378 5377 5377 5374 5373 5370 5368 5364 5360 5355 5351 5344 5337 5332 5328 5324
5233 5240 5247 5254 5260 5268 5277 5286 5295 5302 5308 5313 5317 5325 5331 5336 5337 5336 5341 5348 5351 5355 5354 5358 5362 5361 5361 5360 5358 5356 5355 5353 5350 5347 5342 5337 5333 5329 5325 5317 5311 5307 5303
5199 5206 5210 5219 5229 5235 5244 5254 5264 5271 5281 5290 5294 5302 5308 5313 5317 5316 5319 5321 5325 5333 5336 5337 5339 5338 5338 5337 5337 5335 5334 5332 5329 5324 5318 5316 5314 5309 5304 5299 5293 5288 5284
5171 5174 5178 5184 5191 5201 5210 5221 5229 5241 5250 5264 5271 5276 5285 5290 5295 5298 5295 5294 5301 5312 5317 5315 5317 5314 5314 5314 5315 5314 5311 5308 5307 5303 5300 5297 5293 5290 5286 5281 5276 5270 5264
5145 5148 5151 5156 5161 5167 5177 5188 5197 5208 5222 5231 5241 5248 5261 5268 5273 5274 5273 5275 5283 5294 5298 5291 5290 5291 5292 5292 5291 5290 5287 5286 5284 5281 5280 5276 5273 5272 5267 5264 5259 5252 5245
5124 5126 5129 5134 5139 5144 5151 5162 5170 5179 5190 5202 5212 5219 5230 5239 5248 5250 5252 5252 5262 5270 5269 5271 5267 5266 5268 5269 5270 5268 5265 5264 5263 5262 5261 5258 5255 5251 5251 5248 5242 5237 5229
5108 5109 5112 5117 5123 5128 5133 5139 5146 5155 5165 5174 5184 5193 5200 5210 5218 5223 5227 5234 5238 5239 5242 5243 5244 5246 5247 5248 5247 5247 5246 5245 5245 5244 5242 5240 5238 5237 5235 5230 5225 5219 5212
5098 5100 5104 5107 5111 5115 5120 5126 5132 5139 5147 5155 5163 5170 5176 5184 5193 5202 5204 5206 5209 5216 5218 5220 5222 5225 5228 5230 5230 5230 5229 5229 5228 5229 5227 5225 5223 5221 5218 5214 5208 5201 5193
5094 5096 5099 5103 5106 5108 5111 5115 5120 5127 5134 5142 5148 5153 5162 5170 5172 5177 5182 5187 5192 5196 5200 5205 5208 5210 5212 5214 5214 5215 5214 5213 5213 5212 5212 5210 5207 5206 5203 5198 5192 5185 5177
5095 5096 5099 5102 5104 5107 5109 5113 5118 5123 5129 5135 5143 5149 5153 5155 5158 5164 5170 5175 5179 5183 5186 5189 5193 5195 5197 5198 5199 5199 5199 5199 5198 5197 5197 5195 5194 5191 5186 5181 5174 5167 5158
5099 5099 5100 5101 5103 5105 5108 5111 5116 5121 5126 5130 5135 5140 5143 5146 5150 5153 5159 5164 5167 5170 5173 5176 5179 5180 5183 5184 5185 5186 5186 5186 5184 5184 5183 5182 5179 5175 5170 5164 5157 5149 5139
5102 5101 5101 5101 5103 5104 5106 5108 5111 5115 5118 5122 5127 5130 5133 5137 5141 5145 5149 5151 5155 5158 5160 5162 5165 5168 5170 5172 5173 5174 5174 5173 5173 5172 5170 5167 5163 5158 5152 5146 5138 5130 5121